Location: Cerro Alto Campground
(35.4250°N, 120.7383°W)
Time: 09:27:00
(UTC-08:00)

Daily predictions for brighter satellites

Satellite Brightness Start Highest point End
(mag) Time Altitude Azimuth Time Altitude Azimuth Time Altitude Azimuth
Cosmos 2297 3.9 17:42:07 10° N 17:47:39 49° ENE 17:53:11 10° SE
CZ-2C R/B 3.0 17:44:07 10° S 17:49:02 64° W 17:53:48 10° NNW
Cosmos 1707 Rocket 4.3 17:45:40 10° NNE 17:49:32 30° ENE 17:53:22 10° SE
CZ-3A R/B 3.8 17:47:55 10° NNW 17:52:00 25° NE 17:56:36 10° E
COSMO-SKYMED 1 2.7 17:49:00 10° NNE 17:53:16 54° E 17:57:31 10° S
Cosmos 1634 Rocket 4.5 17:48:07 10° NNW 17:54:14 67° W 18:00:19 10° S
SMAP 3.7 17:50:07 10° S 17:54:43 63° W 17:59:21 10° NNW
COSMOS 2441 4.3 17:51:04 10° SSE 17:55:55 81° ENE 18:00:46 10° N
Cosmos 1666 Rocket 4.0 17:52:56 10° SSE 17:57:00 41° E 18:01:07 10° NNE
Cosmos 1626 2.2 17:58:27 10° S 18:02:05 53° E 18:05:45 10° NNE
Lacrosse 4 Rocket 2.6 18:02:11 10° N 18:05:18 21° ENE 18:08:25 10° ESE
Milstar 3 4.3 18:02:38 10° W 18:08:51 32° SSW 18:14:48 10° SE
Cosmos 1184 Rocket 2.9 18:08:02 10° S 18:11:17 51° E 18:14:32 10° NNE
Resurs 01 Rocket 3.2 18:12:22 11° E 18:14:40 15° ENE 18:17:13 10° NNE
Cosmos 2058 4.4 18:12:08 10° SSW 18:15:58 38° W 18:19:48 10° N
FREGAT/IRIS 3.8 18:17:10 10° SE 18:19:39 23° ENE 18:22:09 10° NNE
Tiangong 1 0.8 18:21:25 10° WSW 18:24:24 79° SSE 18:25:53 26° ENE
Iridium 4 Rocket 3.4 18:24:11 10° SSE 18:28:23 40° E 18:32:21 10° NNE
Lacrosse 5 rocket 3.6 18:26:12 10° WNW 18:29:28 26° WSW 18:32:52 10° S
Cosmos 1242 Rocket 3.3 18:26:33 10° NNE 18:29:33 27° ENE 18:32:33 10° SE
FAST Rocket 4.4 18:27:02 10° SSW 18:29:37 60° W 18:32:25 10° N
Cosmos 1470 Rocket 4.0 18:26:10 10° SSE 18:30:11 38° E 18:34:11 10° NNE
Spot 2 Rocket 4.4 18:27:22 10° ESE 18:31:25 25° ENE 18:35:30 10° NNE
USA 229 DEB 3.7 18:25:05 10° SSW 18:31:57 86° WNW 18:38:55 10° NNE
USA 229 3.7 18:25:11 10° SSW 18:32:02 87° WNW 18:39:00 10° NNE
Cosmos 1455 2.0 18:28:59 10° N 18:32:48 78° E 18:36:38 10° S
Cosmos 1356 Rocket 4.1 18:31:12 10° SSW 18:35:05 52° W 18:38:59 10° N
Cosmos 1603 3.6 18:30:05 10° S 18:35:39 69° ESE 18:41:13 10° NNE
Coronas F rocket 1.3 18:34:21 10° SSW 18:36:42 64° W 18:38:27 16° N
Centaur AC-119 3.9 18:37:54 10° SSW 18:39:46 19° SSE 18:41:17 15° SE
Aureole 1 Rocket 4.0 18:35:03 10° SSW 18:40:20 80° WNW 18:47:24 10° NNE
Sich 1 3.9 18:41:08 10° SSW 18:45:28 53° W 18:49:49 10° N
NOSS 3-1 (A) 4.0 18:41:06 10° S 18:46:03 31° ESE 18:47:36 27° E
Cosmos 2242 Rocket 3.4 18:42:16 10° N 18:46:42 72° E 18:51:09 10° SSE
SJ-6B 2.8 18:49:34 10° SSE 18:53:39 84° ENE 18:57:48 10° N
Cosmos 1633 Rocket 4.2 18:53:19 10° SSW 18:57:31 44° W 19:01:44 10° N
Cosmos 923 Rocket 4.2 18:53:11 10° SSW 18:58:22 71° WNW 19:03:35 10° NNE
Cosmos 2026 Rocket 4.0 18:52:23 10° SSE 18:58:25 55° E 19:04:22 10° NNE
Delta 2 Rocket 3.4 18:59:56 10° SW 19:02:56 44° S 19:02:56 44° S
Cosmos 1680 Rocket 3.5 18:59:05 10° SSW 19:04:18 83° WNW 19:08:36 16° NNE
Meteor 2-20 4.4 19:01:15 10° S 19:07:14 59° E 19:13:15 10° NNE
OAO 1 4.5 19:06:23 10° WSW 19:11:50 73° SSE 19:13:06 52° ESE
Cosmos 2369 Rocket 3.0 19:07:03 10° N 19:10:49 31° NNE 19:10:49 31° NNE
Cosmos 972 Rocket 4.3 19:09:56 10° N 19:15:12 51° ENE 19:15:21 50° ENE
ALOS 2.1 19:12:22 10° SSE 19:17:02 84° ENE 19:21:43 10° N
NOSS 3-1 (C) 3.2 19:17:13 10° SSW 19:22:55 88° ESE 19:24:56 45° NNE
Genesis I 3.5 19:19:13 10° SW 19:22:49 66° W 19:22:49 66° W
Cosmos 1862 Rocket 3.6 19:20:36 10° N 19:24:58 75° W 19:29:16 10° S
Cosmos 1428 Rocket 4.3 19:23:23 10° S 19:29:24 66° E 19:30:06 61° ENE
USA 215 3.2 19:31:27 57° E 19:32:26 63° NE 19:38:54 10° NW
FENGYUN 3A 3.7 19:27:12 10° S 19:32:32 75° WSW 19:37:56 10° NNW
In-Cosmos 22 Rocket 4.2 19:37:31 10° S 19:42:06 67° SSW 19:42:06 67° SSW
Lacrosse 4 Rocket 3.4 19:40:33 10° NW 19:43:57 26° WSW 19:46:12 16° SSW
Meteor 2-20 Rocket 4.4 19:42:37 10° S 19:48:43 79° W 19:50:36 47° N
Resurs 01 Rocket 2.7 19:46:31 10° S 19:50:44 43° W 19:54:58 10° NNW
Cosmos 1943 3.6 19:45:54 10° SW 19:51:28 58° WNW 19:52:24 51° NNW
ATLAS 5 CENTAUR R/B 4.2 19:51:10 10° NNW 19:52:40 17° N 19:52:40 17° N
